Location: Cisewo
(53.3833°N, 14.9000°E)
Time: 11:56:18
(UTC+00:00)

Resurs 1-3 - Pass Details

Date: 18 April 2021
Orbit: 630 x 632 km, 97.9° (Epoch: 14 May)

Event Time Altitude Azimuth Distance (km) Brightness Sun altitude
Exits shadow 19:23:12 - 177° (S) 2,721 6.5 -10.9°
Reaches altitude 10° 19:24:57 10° 181° (S) 2,012 5.9 -11.1°
Maximum altitude 19:29:15 55° 259° (W) 768 4.3 -11.6°
Drops below altitude 10° 19:33:35 10° 338° (NNW) 2,026 7.2 -12.1°
Sets 19:35:51 0° 343° (NNW) 2,939 8.0 -12.4°
